RH
30 29 30 28 29 28 27 29 30 37 35 37 41 31 23 25 29 19 16 16 10 26 47 59 55 52 58 64 75 83 90 81 76 75 76 87 77 70 69 60 62 72 85 88 90 93 90 90 80 67 56 50 48 34 32 47 48 47 47 48 55 67 76 82 83 80 83 80 85 89 85 88 87 85 84 87 89 90 90 88 90 87 83 81 85 92 91 88 85 86 88 89 90 90 89 89 88
29 28 27 30 31 30 33 34 34 38 34 29 32 30 23 23 25 17 17 14 12 40 58 62 63 66 70 72 80 78 82 91 87 85 90 91 81 77 65 58 67 81 90 89 91 92 93 90 78 66 55 51 46 33 39 50 48 50 50 48 49 55 64 74 77 77 81 80 86 93 90 91 89 84 83 87 91 94 92 88 88 90 91 84 84 91 89 85 85 89 91 91 92 92 91 91 90
27 28 29 37 33 33 40 34 34 38 34 27 23 24 19 16 16 14 16 11 15 44 56 57 64 65 69 79 84 77 81 88 85 91 95 87 90 92 72 65 76 88 91 90 91 87 91 90 77 65 55 52 44 35 45 51 49 52 55 51 49 52 58 65 68 70 79 81 83 89 90 90 90 85 84 90 92 89 86 86 88 90 92 87 86 87 86 85 87 91 92 93 94 94 92 91 92
26 28 30 38 33 38 48 39 42 39 33 30 20 20 20 14 13 13 14 13 12 32 51 61 68 61 68 86 85 83 89 85 82 87 90 83 90 98 85 79 87 91 92 93 89 81 87 89 78 64 55 53 43 38 47 53 54 58 60 55 52 54 57 61 64 69 78 83 84 87 88 89 93 91 89 92 89 84 85 90 90 89 91 91 88 86 86 84 87 91 92 94 93 92 91 91 91
26 27 27 36 35 36 44 41 47 38 27 30 20 19 24 19 16 17 17 17 13 27 50 64 71 62 66 80 79 88 92 86 82 79 87 91 90 95 91 89 92 91 93 93 85 79 84 86 76 63 55 53 43 40 52 63 66 67 66 61 57 55 57 60 61 69 79 85 87 87 89 93 96 95 94 93 90 88 91 93 90 90 91 91 85 84 89 86 88 91 92 92 89 87 86 86 85
27 27 26 36 37 32 36 38 43 40 29 27 23 21 24 21 19 22 19 16 26 47 57 63 68 67 75 76 78 87 85 83 82 81 91 98 94 92 92 94 94 91 92 91 87 82 83 84 73 60 55 52 44 48 63 74 75 74 73 69 64 58 57 58 62 74 82 87 88 85 88 92 93 94 95 94 94 91 91 91 90 90 88 86 80 81 87 81 82 87 86 82 79 79 79 81 80
25 29 35 37 37 34 40 42 39 39 32 28 27 23 21 21 21 21 19 13 28 56 62 64 64 72 85 76 81 83 72 77 79 84 93 96 94 91 93 95 94 92 91 92 89 83 84 83 71 61 57 53 50 60 73 76 77 77 78 75 71 66 63 65 71 82 86 86 87 86 87 89 92 94 95 95 92 88 90 92 90 89 87 87 80 76 79 68 66 73 73 72 73 75 76 76 77
25 31 40 39 37 33 37 42 35 33 31 28 26 24 23 22 22 19 22 14 18 51 65 64 65 82 91 79 91 87 73 78 78 87 95 96 96 94 95 93 93 92 90 92 89 87 89 82 70 62 58 57 58 70 79 78 81 80 80 77 73 70 70 73 76 83 87 84 84 86 88 90 93 94 94 94 89 86 90 91 90 91 90 91 83 75 77 65 57 63 66 69 71 72 74 75 76
24 26 32 34 32 29 33 35 27 27 26 25 21 22 23 20 21 18 21 14 15 52 68 64 68 84 94 89 96 88 81 84 82 90 93 96 96 93 91 83 84 90 92 91 90 91 91 80 69 63 62 63 65 76 82 82 85 83 82 76 71 67 65 66 64 72 81 79 78 80 82 84 86 86 86 88 86 84 87 90 91 94 91 88 82 78 81 69 57 61 65 67 70 71 72 73 74
26 24 28 31 30 30 32 28 24 24 19 20 18 15 17 14 15 13 17 11 21 61 73 71 77 86 93 96 98 88 87 88 85 92 92 92 92 88 82 70 70 83 92 91 92 92 89 84 73 68 68 64 66 80 85 84 85 84 83 74 65 58 53 54 54 62 71 72 73 73 74 76 78 78 78 79 79 80 81 84 87 91 88 83 81 76 77 70 58 60 65 67 69 70 69 68 70
30 26 29 35 35 33 32 29 26 24 18 18 16 14 14 12 11 12 13 12 36 74 80 82 88 91 93 95 98 90 86 86 85 91 92 91 87 79 73 67 61 71 88 92 92 89 91 92 80 74 71 66 74 85 85 81 83 86 82 71 62 52 48 50 53 60 66 69 71 71 73 76 77 76 75 74 74 75 76 79 83 87 84 84 85 76 70 65 56 56 61 66 66 66 64 64 66
32 29 34 41 42 36 34 32 28 26 21 19 17 15 13 12 13 12 9 16 53 82 75 80 85 85 91 96 98 89 83 84 84 89 91 88 83 70 62 63 62 71 85 88 89 90 94 95 88 84 77 76 82 84 82 78 81 86 79 68 61 54 52 53 57 62 68 72 73 75 78 79 79 78 78 77 75 74 75 78 81 83 82 84 88 82 75 66 57 54 55 59 60 60 59 61 63
34 33 34 38 43 40 33 29 28 29 23 17 14 12 10 11 10 9 17 34 64 75 64 70 76 79 90 96 96 92 84 82 84 89 88 82 77 62 54 63 72 82 86 85 89 92 94 96 94 90 82 78 78 79 81 80 83 85 77 68 61 58 60 62 67 71 76 77 76 80 83 81 81 82 81 81 80 78 79 78 80 85 86 85 87 88 84 74 63 56 53 52 52 55 57 60 63
31 32 30 29 36 34 26 23 24 24 18 14 12 11 8 10 14 19 43 62 68 65 62 68 71 81 93 96 99 98 87 82 87 90 87 83 78 66 65 77 87 91 90 90 91 91 94 97 96 94 88 79 79 83 84 83 86 85 75 69 63 61 65 69 76 81 82 79 79 84 85 83 82 83 83 83 83 82 80 79 83 85 87 88 86 89 90 84 71 57 55 54 50 52 56 59 62
25 28 28 26 31 27 22 22 20 18 16 14 11 11 8 14 29 38 57 75 75 65 65 68 66 78 91 92 95 95 87 84 88 90 91 93 90 87 88 92 95 94 93 92 90 91 94 96 96 98 93 84 86 89 86 86 90 86 76 71 65 64 69 74 78 81 82 81 83 84 82 82 83 84 84 81 78 76 74 74 77 73 78 87 86 88 89 90 80 59 51 53 51 50 51 57 62
23 24 25 25 30 27 25 22 19 19 17 15 11 11 9 14 36 50 56 64 70 67 69 71 64 70 81 82 84 86 86 86 90 94 96 99 98 99 99 96 96 96 96 96 95 95 95 96 98 99 94 88 92 91 88 91 94 88 77 70 65 69 76 79 81 83 85 86 87 84 79 78 80 83 79 74 70 66 59 58 61 60 70 82 84 87 86 89 84 67 56 51 50 49 51 57 62
20 21 26 26 27 25 27 23 20 21 16 14 10 11 9 12 38 57 61 64 71 77 82 80 68 69 77 80 84 86 87 90 94 98 99 100 100 100 100 99 99 99 99 99 99 99 98 99 99 98 95 93 94 92 93 96 96 88 76 71 72 79 84 85 87 89 91 90 90 85 78 75 77 76 73 72 68 58 50 48 49 55 71 79 79 83 82 80 73 66 63 56 53 55 57 60 63
22 27 31 29 26 23 24 22 18 16 14 12 9 12 9 14 37 50 62 75 80 88 90 87 84 81 83 87 91 91 90 94 98 99 100 100 99 100 100 100 100 100 100 100 100 100 100 100 99 99 98 98 97 95 98 99 97 86 73 74 83 88 90 91 92 92 92 89 89 85 80 77 75 74 72 74 68 56 51 50 48 54 69 73 69 71 74 71 64 61 63 60 60 63 64 64 65
28 30 28 26 25 20 18 17 14 12 12 11 11 11 9 15 24 36 66 82 83 96 97 92 97 94 93 94 94 96 94 96 98 97 99 99 99 100 100 100 100 100 100 100 100 100 100 100 100 100 99 100 99 98 100 99 95 81 70 78 90 93 94 94 90 91 89 84 85 84 82 77 74 76 75 75 69 57 56 54 51 56 62 64 64 69 74 71 63 60 61 63 65 67 68 66 66
29 28 27 24 20 16 14 14 12 12 11 11 12 10 11 10 11 40 76 83 83 96 99 96 100 99 98 96 94 97 96 95 96 96 98 97 98 99 100 100 100 100 100 100 100 100 100 100 100 100 100 100 100 100 100 99 91 77 74 84 93 94 94 90 85 85 83 78 81 84 83 76 73 78 80 80 72 60 61 59 56 57 58 61 66 69 74 71 63 59 60 64 67 69 68 67 66
24 27 30 24 15 14 13 12 12 12 11 12 11 11 14 6 16 58 76 72 81 88 90 92 93 96 97 96 94 95 95 95 96 97 98 98 98 99 99 100 100 100 100 100 100 100 100 100 100 100 100 100 100 100 98 96 86 77 83 90 92 92 88 83 79 78 77 76 80 83 80 73 71 75 83 85 73 62 63 64 61 57 57 62 66 69 74 73 66 62 61 62 65 66 65 66 68
23 25 24 20 14 14 13 12 12 11 11 12 12 11 11 6 22 63 71 62 71 76 79 83 85 90 93 94 94 94 95 94 93 94 98 98 98 99 99 100 100 100 100 100 100 100 100 100 100 100 100 100 100 98 95 92 83 81 90 92 90 88 81 76 75 74 74 75 77 78 74 70 69 72 84 84 72 64 64 65 61 56 60 68 73 77 79 76 70 67 64 64 64 65 67 69 70
28 28 22 20 16 14 12 11 11 11 12 11 12 11 10 9 12 42 64 56 59 71 77 80 83 86 88 91 92 93 93 88 89 93 95 94 94 99 100 99 100 100 100 100 100 100 100 100 100 100 100 100 100 97 92 89 83 85 92 91 86 82 76 72 74 73 70 71 72 72 68 67 67 69 79 79 69 64 64 65 61 60 67 74 78 80 79 75 71 67 65 66 66 68 69 68 65
27 28 22 19 16 15 12 11 11 10 12 10 11 10 10 12 5 26 52 48 60 80 80 81 83 83 86 91 91 91 90 88 92 95 91 90 88 91 96 99 100 100 100 100 100 100 100 100 100 100 100 99 99 94 88 87 88 88 91 89 82 78 72 69 72 71 67 67 69 70 67 67 68 68 74 74 66 63 66 68 67 71 77 79 79 77 75 73 71 67 65 65 65 67 67 63 60
23 24 20 17 16 14 12 11 11 11 11 10 11 12 10 11 10 26 43 50 75 88 81 83 84 85 88 91 90 89 90 91 96 96 91 92 89 87 93 97 99 100 100 100 100 100 100 100 100 100 100 100 96 89 84 87 90 88 87 85 80 76 70 67 69 66 63 64 68 73 71 71 73 72 76 76 69 67 72 76 76 78 81 83 81 77 73 73 73 69 67 66 65 66 64 59 56
24 21 19 17 15 14 13 11 10 10 11 10 10 11 10 10 10 17 35 60 84 86 83 88 86 89 91 90 89 87 91 95 96 95 93 95 95 92 93 93 97 100 99 100 100 100 100 100 100 100 100 98 91 85 83 87 89 84 82 82 78 73 67 65 64 61 60 63 69 76 76 75 77 76 79 81 76 76 79 80 79 77 78 81 81 79 74 74 75 70 68 69 68 66 61 58 55
20 17 16 14 14 12 10 9 9 9 10 11 10 10 10 10 9 9 29 64 85 88 90 91 89 91 90 89 88 85 90 97 95 92 95 99 98 97 95 94 96 98 99 100 100 100 100 100 100 100 100 95 88 87 86 85 84 80 79 80 77 72 65 62 62 62 62 64 70 78 79 78 81 82 82 83 82 83 83 82 80 79 79 81 81 78 76 76 75 72 71 71 69 64 60 57 56
13 13 13 12 12 11 11 9 10 10 9 11 11 10 10 9 9 9 29 65 85 91 94 91 90 92 89 89 90 88 90 96 95 92 98 101 98 97 96 96 96 97 100 100 100 100 98 98 99 100 99 93 88 87 85 81 80 79 77 77 75 69 61 58 62 65 64 66 73 79 80 79 82 86 85 85 85 86 86 84 84 82 81 82 83 81 79 77 74 73 73 73 70 64 60 58 57
12 13 13 14 14 11 12 11 10 10 9 11 10 11 13 10 10 10 28 66 86 91 95 92 91 93 91 90 90 91 92 96 96 94 97 98 97 96 94 94 94 97 100 99 100 100 98 97 96 97 96 90 85 83 80 77 76 76 75 75 74 67 62 62 64 65 65 67 73 80 83 81 83 87 86 86 86 87 86 86 85 83 83 84 86 85 81 78 74 73 75 74 71 65 61 60 59
13 13 13 15 16 16 14 11 10 9 9 11 10 14 18 14 12 10 23 64 89 94 97 92 92 94 92 92 93 93 94 96 95 93 95 98 97 96 95 94 93 96 99 100 100 99 100 99 96 97 95 89 84 81 79 76 75 75 72 75 73 67 69 73 70 67 67 69 73 80 85 85 86 87 86 86 87 87 86 86 86 85 85 87 89 86 81 78 76 75 75 73 71 66 62 62 60
15 13 17 19 18 20 17 14 13 9 11 12 9 16 21 15 14 9 19 61 90 96 97 93 92 94 93 95 95 94 95 96 94 92 95 97 98 97 96 96 94 95 97 99 100 99 100 100 98 99 96 93 87 82 79 73 75 75 72 77 74 68 73 78 75 71 71 73 77 82 86 86 88 89 87 86 85 88 88 87 89 89 87 88 89 87 82 80 79 77 76 73 72 67 64 66 64
23 15 25 31 21 21 20 15 15 10 10 12 9 17 20 14 13 9 18 56 85 93 96 94 94 95 95 96 95 95 95 95 95 94 97 98 98 98 97 98 96 93 93 96 100 100 100 100 99 98 99 99 92 84 78 73 75 74 74 79 74 68 74 79 77 75 74 76 80 84 86 85 87 88 88 86 84 88 91 90 91 91 88 88 88 89 86 82 79 78 77 74 71 68 65 69 70
37 25 29 36 24 24 23 14 15 11 9 11 10 16 18 14 14 11 19 50 75 88 94 94 96 97 96 96 95 96 95 96 97 96 99 99 99 99 98 99 96 91 89 93 100 100 100 100 99 99 100 98 93 87 82 78 77 75 77 80 75 73 79 81 78 77 77 78 81 84 86 86 87 87 88 89 87 89 93 92 92 93 90 89 89 90 90 86 81 78 79 77 71 68 65 67 73
39 31 30 36 28 26 24 17 16 12 10 11 10 14 15 14 15 11 19 43 63 78 90 94 97 98 96 95 94 96 98 99 98 97 99 100 99 99 99 99 96 92 89 93 99 100 99 100 100 100 98 95 93 90 87 84 82 81 82 80 79 82 84 82 79 79 79 78 82 85 87 87 87 88 91 94 93 93 94 94 94 93 93 93 92 93 93 91 86 79 79 78 73 70 66 65 74
30 28 28 36 33 26 24 20 17 12 11 13 12 15 15 14 14 10 15 37 55 65 80 93 97 98 96 94 95 95 98 99 97 96 98 100 100 99 99 99 96 93 93 96 100 100 100 100 100 100 98 94 91 91 90 89 90 91 90 85 86 88 86 83 81 81 79 80 86 88 88 89 89 91 94 94 95 95 94 95 96 94 94 96 94 94 95 93 90 84 81 78 77 76 70 69 74
23 23 27 34 30 25 22 19 16 12 12 14 14 15 14 12 12 10 12 30 50 55 69 90 96 96 95 94 95 95 97 99 96 95 99 100 100 100 100 99 97 96 97 100 100 99 100 100 100 100 97 92 88 92 95 93 95 99 97 95 94 92 86 83 83 85 84 85 90 90 90 92 92 94 94 93 95 96 95 96 98 96 96 97 95 94 95 93 91 86 82 79 80 84 82 78 77
23 22 26 27 25 23 20 18 16 13 16 19 17 16 15 14 13 12 12 25 44 51 63 87 97 96 96 94 95 95 96 97 95 97 99 99 100 100 100 100 99 99 99 100 100 100 100 100 100 100 96 88 84 91 96 93 94 98 101 99 94 90 85 83 87 91 91 90 90 89 91 95 95 95 95 95 97 97 97 98 97 97 97 98 95 93 93 93 92 87 82 83 84 87 91 91 87
26 25 26 25 24 22 17 17 17 14 20 25 23 21 20 17 15 14 14 19 32 44 58 81 96 96 94 95 95 96 96 96 96 99 100 99 100 100 99 100 99 100 100 100 100 99 100 100 99 100 96 87 83 86 87 87 88 90 96 94 87 85 84 85 89 92 92 90 88 88 90 94 95 94 94 96 98 98 99 99 97 96 97 98 95 94 94 94 95 92 85 85 88 87 90 95 92
31 29 28 29 25 22 20 20 22 18 21 28 27 27 25 21 20 19 18 15 21 37 50 67 88 95 94 95 95 97 99 99 99 99 100 99 100 100 100 100 99 100 99 97 99 100 99 100 98 98 95 86 83 81 79 84 83 82 88 87 83 85 86 87 89 90 89 87 87 88 89 91 92 93 95 97 97 98 99 99 98 97 97 96 92 94 98 97 98 98 89 84 88 91 91 93 90
39 36 32 32 26 24 25 23 26 25 25 29 26 28 28 24 25 20 18 20 22 34 44 56 77 87 90 91 92 97 100 100 100 99 100 99 98 100 100 99 99 100 96 91 96 100 100 100 98 97 93 85 82 81 83 86 82 81 89 88 85 88 88 88 88 86 85 84 86 88 88 89 90 92 94 95 96 95 94 95 95 94 95 96 91 90 96 99 99 98 93 85 83 91 95 92 89
44 44 35 33 28 27 27 24 28 31 31 31 25 30 34 34 37 27 23 27 23 33 52 61 72 79 85 90 92 96 99 99 99 99 98 96 98 100 100 99 99 99 94 91 96 98 98 99 98 95 92 86 82 83 89 88 82 87 95 92 90 91 89 89 89 86 85 85 85 86 86 87 89 90 91 92 93 90 88 89 90 91 93 93 92 89 90 95 98 96 95 88 81 84 89 89 87
39 43 38 32 28 27 26 26 29 31 34 31 25 31 37 39 39 31 30 30 24 38 61 68 74 82 89 95 97 97 98 97 96 97 96 96 98 100 100 98 98 97 91 93 97 94 94 97 96 95 92 88 85 85 88 87 83 90 95 91 90 90 89 90 88 84 84 84 83 84 85 86 87 88 88 89 89 86 85 86 87 88 90 89 90 93 90 89 93 96 96 92 86 81 79 83 85
33 43 41 29 27 29 29 29 30 35 39 33 29 33 34 35 36 37 39 40 46 58 67 72 80 90 95 97 98 98 98 98 97 97 95 95 97 98 98 96 96 95 90 93 99 96 95 96 94 94 92 90 88 85 86 87 87 90 91 87 86 86 86 87 83 80 80 80 81 81 81 81 80 82 84 86 87 85 85 88 89 89 89 88 89 93 91 86 88 94 96 96 92 85 79 78 81
35 47 43 31 30 32 32 32 33 41 41 35 39 36 30 35 42 45 45 53 75 82 77 83 90 95 100 98 97 98 98 98 99 99 96 94 94 96 97 95 93 92 93 96 99 97 94 92 90 90 91 91 89 86 86 89 89 90 89 84 83 81 79 79 80 79 79 77 76 77 77 74 70 70 74 76 78 79 81 84 87 88 89 90 89 90 89 88 89 90 93 97 95 89 84 78 78
31 34 33 30 28 29 33 33 35 41 32 29 45 38 27 46 60 54 52 66 91 97 88 93 98 98 101 99 97 97 95 94 95 96 94 92 92 92 91 91 92 92 95 97 96 94 91 88 88 88 90 92 89 87 87 89 90 89 87 82 78 76 73 73 76 76 76 75 73 75 78 73 66 66 68 68 68 70 73 74 77 81 85 87 88 88 90 90 90 89 89 94 95 90 86 82 80
23 23 27 26 27 31 32 33 32 32 30 28 41 38 27 48 70 69 71 77 89 100 97 96 100 100 98 99 99 96 94 93 92 91 89 89 88 87 86 91 95 95 95 95 95 95 94 90 88 88 91 92 88 86 87 89 89 88 85 79 74 73 72 71 73 73 73 74 73 75 79 76 70 68 69 70 70 70 70 69 69 73 77 81 81 83 88 89 89 88 87 89 91 88 85 85 82
19 24 26 23 36 43 40 51 44 30 39 36 37 45 33 39 65 77 82 78 79 97 102 98 100 100 98 99 97 94 93 92 91 89 89 90 89 87 89 95 99 98 97 98 98 99 99 96 90 88 93 92 87 86 88 88 88 86 84 78 72 70 69 69 71 73 74 73 72 74 77 76 70 69 70 73 72 70 69 67 65 67 71 75 75 76 80 84 86 88 89 89 88 86 84 85 85
20 27 26 24 45 47 42 61 49 31 48 47 42 50 36 36 64 83 90 87 85 93 99 99 100 100 99 98 95 92 91 90 90 89 90 94 94 92 95 98 99 100 99 100 100 99 100 99 94 92 95 93 88 87 88 87 85 84 80 76 71 66 65 68 71 73 74 71 69 70 71 71 67 67 71 74 73 70 68 66 62 64 69 71 71 73 76 80 84 86 88 90 90 88 87 86 85
23 30 33 31 39 37 45 63 52 43 51 46 49 50 37 49 73 86 97 98 92 89 90 94 98 100 99 96 96 93 89 87 86 86 91 96 96 96 97 98 99 100 100 100 100 100 100 100 98 97 96 92 88 86 84 82 82 80 75 71 69 64 64 68 71 73 72 67 67 67 67 66 64 65 70 72 71 68 67 66 63 64 67 68 70 74 77 78 80 83 85 87 88 88 87 85 82
23 28 33 35 39 37 50 64 54 47 41 36 47 39 35 65 82 88 99 98 92 88 86 92 95 98 100 98 98 96 90 87 84 85 91 95 95 95 97 99 99 100 100 100 100 100 100 100 99 99 97 91 85 83 80 77 76 73 70 67 65 62 62 64 68 71 69 66 66 65 64 65 65 65 68 70 69 68 67 66 66 67 66 65 68 73 78 79 79 80 81 81 83 84 84 84 81
22 28 28 33 50 47 46 54 45 40 40 43 51 41 45 78 89 89 94 87 86 88 88 93 94 96 99 97 96 97 95 91 88 89 92 94 95 96 96 98 99 100 100 100 100 100 100 100 100 100 96 89 84 79 75 71 69 66 64 62 59 58 56 58 63 67 64 62 63 63 63 64 65 66 67 68 68 67 66 65 65 66 66 66 65 67 73 77 79 81 81 80 81 83 83 82 81
25 30 24 24 42 43 45 57 51 51 56 52 62 71 76 87 87 86 88 83 83 87 90 95 95 96 99 97 94 95 96 93 91 94 96 96 96 96 98 98 99 100 99 100 100 100 100 99 100 99 93 86 82 77 73 69 64 62 61 58 56 56 54 55 60 61 56 56 60 62 63 62 63 65 66 66 67 67 66 64 64 63 66 69 66 62 67 74 79 83 82 79 78 80 81 79 78
34 30 24 26 31 31 42 52 49 54 53 48 70 94 92 86 81 80 86 89 87 88 91 94 96 96 98 99 97 95 96 94 94 96 97 98 98 98 99 98 97 97 98 100 100 99 101 100 100 100 95 90 84 79 81 80 69 62 61 59 56 54 53 55 56 54 55 59 61 62 62 61 62 63 65 65 66 67 66 64 63 61 64 71 69 61 64 73 78 83 82 79 77 77 76 73 73
33 28 27 29 27 35 52 58 54 53 45 49 80 100 93 86 84 84 90 95 94 93 93 93 94 93 94 98 99 98 98 97 96 97 98 99 100 100 99 98 96 95 94 97 99 99 100 100 100 99 97 96 93 87 89 90 78 65 61 59 55 53 53 54 52 54 60 63 62 62 62 62 63 64 65 65 65 66 66 64 64 61 62 70 71 62 64 73 78 80 79 76 73 69 68 66 64
25 29 29 29 35 46 50 49 53 52 48 57 75 86 90 90 87 90 97 99 97 96 96 95 94 93 94 96 97 98 99 99 98 99 99 100 100 100 100 100 98 95 92 91 92 95 96 96 97 96 94 95 96 91 85 84 77 67 62 59 55 54 53 52 53 60 64 62 60 62 63 64 65 66 66 66 66 67 67 65 63 61 59 67 72 65 64 72 76 73 65 59 57 56 54 53 53
19 24 28 35 54 59 44 41 50 52 58 67 69 75 88 91 89 89 91 95 97 96 97 98 96 95 96 96 97 98 98 100 100 99 100 100 100 100 99 99 99 96 95 90 87 89 89 90 93 94 91 90 92 87 79 80 76 67 62 59 55 54 52 52 57 61 60 58 58 61 64 65 66 67 67 66 66 65 64 63 60 60 62 68 74 69 64 67 72 71 58 46 45 46 44 46 48
25 31 34 36 50 51 40 43 50 52 64 71 71 81 88 88 91 93 90 92 95 97 97 97 98 98 97 96 97 98 98 100 100 99 100 99 99 101 99 98 97 95 95 93 89 88 87 87 93 95 91 88 88 85 79 79 75 65 60 57 53 52 50 52 56 57 55 54 56 59 63 66 66 66 64 62 63 63 62 62 58 57 61 66 71 71 67 62 63 69 64 49 44 43 42 45 46
47 54 51 46 52 49 39 43 51 59 72 74 73 86 92 91 96 98 96 93 93 95 94 94 97 98 98 99 98 99 99 99 100 98 99 99 98 99 99 98 98 97 99 98 93 90 88 90 95 95 89 86 86 83 79 77 73 63 57 54 52 52 52 53 54 55 54 53 55 60 64 66 65 61 56 56 61 64 64 64 60 56 56 58 60 62 62 58 55 60 62 53 46 44 41 42 41
Wind_Speed
3 4 3 4 5 3 1 2 1 2 2 2 3 2 5 5 2 3 7 4 3 3 2 4 1 2 3 5 7 7 5 1 3 4 3 2 17 27 22 22 30 29 27 26 25 24 22 23 24 25 25 24 23 22 24 24 23 23 25 25 25 26 27 27 27 27 26 25 24 24 23 22 22 22 22 22 22 21 21 20 20 20 20 20 20 19 18 17 18 20 20 20 20 20 20 20 20
2 1 1 3 4 1 1 3 2 2 2 4 3 4 5 2 2 7 8 3 2 3 2 6 7 8 8 9 6 4 6 5 2 3 2 11 22 22 22 28 32 29 28 27 26 25 24 24 24 26 25 24 23 23 24 25 24 24 25 26 26 26 27 27 27 26 25 23 23 23 22 22 22 22 22 22 22 21 20 18 18 18 18 19 19 18 17 17 19 20 19 19 19 19 19 18 18
2 3 0 2 2 2 1 3 2 1 1 5 4 4 4 2 6 8 6 4 5 6 3 5 6 5 5 5 3 3 1 3 5 4 5 15 17 17 26 30 31 29 29 29 27 26 25 25 25 27 25 24 23 23 24 25 24 24 25 26 26 26 26 26 26 25 24 23 22 21 22 22 23 23 22 22 21 20 19 18 18 18 18 17 18 17 16 17 19 19 18 18 18 17 17 17 17
4 3 1 2 2 3 3 2 2 3 3 4 4 5 4 4 8 7 5 5 7 8 5 3 4 1 3 5 2 4 2 1 3 4 5 11 14 21 30 30 30 29 29 29 28 27 26 25 26 27 25 24 23 23 24 25 24 24 25 25 26 26 25 25 24 23 22 21 20 20 21 22 23 24 23 22 20 19 19 19 18 18 17 17 17 16 16 18 18 18 17 17 17 17 16 16 16
3 2 2 3 2 1 2 1 2 3 5 4 2 5 4 6 7 6 6 7 7 7 5 4 2 2 3 4 2 2 4 3 3 3 5 11 22 29 30 30 29 28 29 28 28 28 27 26 27 27 25 24 23 24 24 24 23 23 24 24 24 24 24 23 22 22 21 20 19 20 21 23 23 23 23 22 21 20 20 19 19 18 18 17 16 16 17 17 17 17 17 16 16 16 16 15 15
2 1 2 2 2 1 2 1 2 4 5 4 2 6 5 6 6 7 7 9 6 0 1 2 4 3 4 3 3 3 6 6 5 5 8 18 28 31 31 30 28 27 29 28 28 28 27 26 27 27 26 24 23 24 24 24 23 23 22 23 23 23 22 21 20 19 19 19 19 19 20 22 22 22 21 21 21 20 20 19 19 18 17 16 15 15 17 17 17 17 17 17 17 17 16 15 14
3 2 2 2 1 1 3 2 5 5 5 4 4 8 10 9 7 7 6 6 5 4 4 2 5 7 4 1 3 1 5 7 8 10 17 26 31 31 31 30 27 27 28 28 28 28 27 26 27 27 25 24 23 24 24 23 22 22 22 22 22 22 21 20 19 18 18 18 18 19 19 20 21 21 21 20 20 19 19 18 18 17 15 15 14 15 17 17 17 17 18 18 17 16 16 14 13
4 1 1 3 1 2 2 3 5 4 5 4 5 9 13 14 9 8 7 2 1 2 1 2 2 5 2 1 3 2 6 10 13 19 26 30 32 31 30 30 28 27 28 29 28 26 25 26 27 27 25 24 23 24 23 22 22 22 21 21 21 21 21 19 18 18 18 17 17 18 19 19 20 20 20 19 18 18 19 18 17 16 15 15 15 16 16 16 17 18 18 17 17 16 15 14 13
3 2 1 2 1 1 1 4 5 4 5 6 7 10 12 13 10 8 10 5 3 3 5 5 3 4 2 5 5 2 7 15 22 26 30 31 31 31 31 31 30 28 28 29 28 26 25 26 27 26 25 23 23 23 23 22 21 22 21 20 21 21 20 19 18 18 18 17 16 17 18 18 17 18 17 17 17 18 18 17 17 17 15 14 14 14 14 16 18 18 18 17 16 15 14 13 12
3 2 2 1 2 1 4 3 4 4 6 6 8 12 12 12 10 8 10 9 5 6 5 2 4 6 7 6 5 1 8 21 28 27 27 30 31 32 32 31 31 30 28 28 27 26 25 25 26 26 24 23 24 23 22 22 22 21 20 20 20 19 20 19 19 18 18 17 16 16 16 16 15 16 16 16 16 16 16 16 17 16 15 13 13 14 14 15 17 18 17 16 15 14 13 12 12
2 2 3 2 3 1 4 4 5 5 7 5 8 13 11 11 10 9 9 8 3 7 6 7 7 8 9 5 3 6 16 24 28 26 25 28 30 31 31 30 30 29 29 28 27 26 25 24 25 25 24 24 24 23 23 22 22 21 20 20 19 19 19 19 18 18 17 16 16 16 15 15 15 15 15 15 15 14 14 14 15 15 14 13 13 14 14 15 16 17 16 16 14 13 12 12 12
2 1 4 3 2 3 4 3 5 7 8 6 8 9 6 9 9 7 7 5 3 6 4 4 7 7 9 5 2 9 17 20 25 28 27 28 30 31 31 30 29 29 29 28 27 26 25 24 24 24 24 25 24 24 23 22 22 21 20 20 19 19 19 18 18 18 17 16 16 15 15 15 15 15 15 14 14 13 14 14 14 14 13 14 13 13 14 15 16 16 16 15 13 12 12 12 11
3 2 4 2 3 3 3 3 5 6 7 5 5 7 6 8 9 8 6 4 6 6 5 4 10 7 6 5 4 8 12 17 23 28 29 28 30 31 31 30 29 29 28 27 27 26 25 25 24 23 23 23 23 23 22 22 21 20 20 19 19 19 18 18 18 17 16 16 16 15 15 15 15 14 14 13 13 13 13 13 13 13 12 12 13 12 12 13 15 16 15 14 12 11 11 11 11
3 2 4 1 1 2 2 3 5 3 5 6 3 8 8 6 5 4 7 6 3 5 3 6 10 8 6 6 6 6 10 20 25 27 28 27 28 30 29 29 28 27 26 27 27 26 26 25 24 23 22 23 23 22 21 20 20 20 19 19 18 18 18 17 17 17 16 16 15 15 15 14 14 13 13 13 12 12 12 12 12 12 11 12 11 11 11 11 13 14 14 13 12 11 11 11 11
4 1 4 1 2 2 3 3 3 2 5 6 3 7 9 7 3 4 5 6 2 2 5 5 4 6 8 9 8 9 15 24 27 27 26 24 25 26 27 27 26 26 26 26 26 26 26 25 24 23 23 24 24 23 21 19 19 19 18 18 18 17 16 16 16 16 16 16 15 14 14 13 13 13 13 12 12 11 11 10 10 10 10 11 11 10 11 10 10 12 12 12 12 11 10 10 11
3 2 4 1 2 3 3 4 2 2 5 5 5 7 9 10 5 3 1 4 6 2 4 2 2 2 10 9 9 17 24 27 28 28 25 23 23 23 25 26 26 25 25 24 25 26 26 26 25 24 24 24 24 23 21 19 18 18 17 17 16 15 15 16 15 16 16 16 15 15 15 14 13 13 13 12 12 11 10 10 10 10 9 10 10 10 10 10 10 10 11 11 10 10 10 10 10
2 3 2 1 3 4 4 4 3 3 6 6 8 8 9 11 6 2 4 6 8 4 4 1 2 1 8 7 14 25 29 27 28 28 25 23 22 22 24 24 25 24 24 24 25 27 26 26 26 25 25 25 24 22 20 18 17 17 17 17 16 15 14 15 15 16 16 16 16 15 15 15 14 13 13 12 12 11 11 11 11 11 10 10 10 9 9 9 10 9 8 8 8 8 9 10 10
2 3 2 2 4 5 5 5 5 3 6 7 10 8 7 9 6 3 6 8 6 7 6 4 5 6 9 15 24 29 30 28 28 27 23 21 19 21 24 24 24 24 25 25 26 27 26 27 26 26 26 25 25 22 21 19 18 18 18 17 16 15 14 15 16 16 16 16 15 15 15 14 14 13 13 12 12 11 11 12 12 12 10 10 11 9 8 9 11 11 9 8 8 8 9 10 10
3 3 2 5 5 5 4 4 3 3 7 9 13 7 6 7 4 3 3 3 4 8 6 5 9 10 11 16 23 26 28 27 25 23 18 17 18 20 24 23 23 24 26 27 26 27 27 27 26 26 26 25 24 22 21 20 19 19 18 17 17 16 16 16 16 16 15 15 14 14 14 13 13 12 11 11 11 11 12 12 12 12 12 11 11 10 8 8 10 11 10 9 9 9 10 10 8
3 3 2 6 5 5 5 5 5 6 9 10 12 6 6 8 4 1 3 3 3 6 5 7 9 11 12 13 17 21 25 24 20 19 14 16 18 20 22 21 22 23 26 28 27 27 27 27 26 26 26 25 24 23 22 20 20 19 18 18 18 18 17 16 16 15 14 14 14 14 14 12 11 11 10 10 10 11 12 12 12 12 12 11 10 9 7 7 9 10 9 9 10 10 10 9 7
2 4 5 6 3 6 8 5 7 8 9 8 9 9 9 9 2 2 5 5 1 4 8 10 14 16 16 14 14 15 16 14 14 14 10 8 8 11 15 18 21 23 26 29 28 27 27 27 27 26 25 25 25 24 22 20 20 19 18 19 18 18 18 17 15 13 13 13 14 14 13 12 11 12 12 10 10 10 11 11 11 11 10 10 9 9 8 7 8 9 9 9 9 9 9 8 6
1 4 7 7 3 6 9 5 7 8 7 8 8 8 8 5 1 4 6 6 4 6 8 12 18 19 17 17 14 12 12 12 13 11 8 9 6 0 6 15 19 21 25 27 27 26 27 27 27 26 25 24 24 23 21 20 21 20 19 19 18 18 17 16 14 13 13 13 13 13 13 12 12 12 12 11 10 9 9 9 9 9 9 9 8 8 8 8 8 8 8 8 8 8 7 5 4
2 5 6 7 5 6 8 6 9 7 7 10 8 6 5 4 3 5 7 6 4 2 5 9 13 16 18 17 14 13 14 13 12 14 14 14 11 5 7 13 17 19 22 23 25 26 26 26 26 26 25 23 24 22 21 21 21 20 20 19 18 18 17 16 15 14 13 12 12 12 12 12 11 12 12 11 9 9 8 8 8 8 8 8 7 7 7 7 6 6 6 6 7 5 4 3 3
4 5 6 7 6 7 9 8 10 9 8 12 8 6 8 9 6 2 6 7 2 5 8 8 9 13 17 15 13 14 14 11 10 15 22 23 27 22 15 14 18 18 20 22 25 26 25 26 25 25 24 23 23 22 22 22 21 20 20 19 18 18 17 16 15 13 12 11 11 11 11 11 11 11 12 11 9 8 8 8 8 7 7 6 6 6 7 7 5 4 4 5 5 4 2 3 3
5 7 6 6 6 8 9 8 9 10 8 10 8 8 12 12 4 3 6 7 3 10 11 11 11 14 14 13 14 14 13 13 11 15 22 21 27 30 21 17 20 19 20 22 23 25 25 25 25 25 24 23 23 23 23 23 21 20 20 19 18 18 16 15 14 13 12 11 11 11 11 11 11 11 11 11 9 9 9 8 7 6 5 4 4 5 6 6 5 4 5 4 4 3 3 3 4
6 7 6 6 7 8 8 7 8 9 6 5 6 9 14 8 2 3 3 1 5 10 13 13 14 14 13 12 14 14 13 14 13 17 20 19 22 26 25 23 23 22 22 23 22 23 24 24 26 26 24 23 23 24 24 23 21 20 20 19 18 17 15 14 13 13 12 12 12 11 11 10 11 11 11 11 10 10 9 7 6 5 4 3 3 4 4 4 4 6 6 4 5 5 4 5 5
5 5 6 7 9 8 7 7 8 8 5 5 6 10 14 5 1 4 1 6 7 11 12 12 14 14 13 12 12 12 12 12 14 17 16 17 19 21 24 25 24 24 23 24 22 23 24 23 24 26 25 23 23 24 23 22 21 20 19 18 17 15 14 13 13 13 13 12 12 11 11 10 10 10 11 10 10 9 8 7 6 5 4 3 2 4 5 4 5 7 7 5 6 6 6 7 6
4 3 6 7 7 7 6 7 8 4 4 7 8 10 12 4 1 6 5 9 9 13 12 11 13 12 12 13 11 8 9 13 16 16 14 15 20 20 22 24 24 23 23 24 23 24 26 24 24 24 24 24 23 23 22 21 20 19 18 17 16 15 14 13 13 14 13 13 12 10 10 10 10 10 10 10 10 9 8 7 6 6 5 4 4 5 5 5 5 6 6 6 7 8 8 8 8
3 1 4 8 7 7 6 6 7 5 4 6 6 5 9 3 5 8 5 10 10 12 13 12 12 9 10 11 10 7 7 13 15 15 18 22 25 25 24 24 24 24 23 24 23 25 26 25 25 23 24 24 23 23 22 21 20 19 18 18 17 15 14 14 14 14 13 13 12 10 10 10 10 10 11 10 10 9 8 7 7 7 6 5 6 6 5 5 4 5 6 7 8 9 10 10 10
3 1 1 5 7 7 6 4 4 5 4 4 6 2 7 6 10 9 3 10 11 11 12 13 10 8 9 8 7 7 8 11 14 16 20 22 23 23 23 23 24 24 23 23 23 24 25 25 25 24 24 24 23 23 22 22 21 20 20 19 18 16 14 14 14 14 13 13 13 11 11 11 10 10 10 10 10 9 8 8 8 8 8 6 6 5 5 5 5 5 6 8 9 9 10 12 11
2 3 2 2 2 6 7 4 2 2 3 5 8 4 6 8 12 9 5 11 14 12 11 12 11 8 9 8 6 7 8 10 14 17 18 19 20 20 20 22 23 23 23 23 22 23 24 24 24 24 24 24 23 23 23 23 22 21 21 19 19 18 15 13 14 14 13 12 12 11 10 10 10 10 10 10 9 8 8 8 8 8 8 7 6 5 5 6 6 5 6 8 10 10 11 13 13
2 2 4 3 2 5 8 5 3 5 4 4 7 4 5 7 12 9 5 11 14 13 12 12 12 10 9 7 7 8 7 9 13 15 16 18 19 19 20 21 22 24 24 24 22 22 24 24 24 25 25 24 24 24 24 23 23 22 21 20 19 19 16 13 13 13 12 11 10 10 9 8 9 10 11 10 9 8 8 8 9 9 8 7 6 5 6 7 7 7 7 8 11 12 13 14 13
2 1 5 4 3 4 6 5 3 6 4 1 3 4 4 5 10 8 6 12 13 12 12 13 12 10 10 8 7 8 8 9 10 13 16 18 19 20 22 23 24 26 26 25 25 25 26 26 25 25 25 25 24 24 24 23 23 23 22 20 19 18 16 13 12 12 11 10 9 8 8 8 9 10 11 11 10 9 9 8 9 9 9 8 7 6 6 7 8 9 9 9 11 12 14 15 14
3 2 2 4 3 4 4 5 4 1 2 3 2 3 6 7 9 7 5 12 12 11 12 13 11 9 11 9 7 8 9 10 8 9 15 18 19 20 22 24 26 27 26 27 27 28 28 27 25 25 25 25 24 24 23 22 23 22 22 20 18 16 14 12 12 12 11 10 8 7 7 8 8 10 12 12 11 9 8 8 8 8 8 7 7 8 8 9 9 10 11 11 11 13 14 15 15
1 1 1 3 3 4 5 4 4 5 2 3 4 4 8 9 11 9 4 10 11 12 12 12 11 10 11 10 8 8 10 11 8 9 15 16 18 20 22 24 26 27 26 26 26 27 26 26 25 25 26 25 24 23 22 22 22 22 21 20 18 15 13 13 12 11 11 10 8 7 8 9 9 11 13 12 10 9 8 9 8 7 7 7 8 8 9 10 11 12 12 13 13 13 14 16 17
3 1 2 3 4 6 7 5 4 6 6 5 6 6 9 10 12 11 4 9 11 11 10 10 10 10 10 8 8 9 9 10 8 10 14 13 15 19 20 22 23 23 22 22 23 23 25 26 27 27 27 26 25 24 23 23 22 21 20 19 18 16 14 13 12 11 10 9 8 8 9 9 9 11 11 9 8 9 9 8 7 6 6 7 7 8 10 11 12 13 13 14 15 15 15 16 18
1 3 3 4 4 8 9 5 4 4 4 6 7 6 9 10 13 14 5 9 11 11 9 9 10 10 11 10 11 10 9 8 10 12 13 12 14 16 15 16 16 14 14 16 18 20 24 27 28 28 28 27 26 26 25 24 23 22 20 19 18 16 15 13 12 11 9 8 8 9 10 9 10 10 9 8 8 8 8 8 7 7 7 7 7 8 10 12 12 13 14 14 15 17 18 17 18
2 3 5 6 5 8 9 5 6 5 1 5 6 5 9 12 14 14 5 10 10 12 12 11 13 13 11 13 12 9 8 8 11 12 12 14 15 15 13 13 11 9 10 10 11 16 21 23 26 28 28 27 25 25 25 25 24 22 20 19 18 17 16 14 12 11 9 8 8 9 9 9 10 9 9 8 8 7 8 9 8 8 8 8 7 9 11 12 13 13 15 15 15 18 18 18 19
3 2 2 5 4 6 8 5 5 3 2 5 8 5 10 13 13 13 8 8 9 13 16 16 16 14 12 14 12 10 10 9 11 11 12 15 16 18 17 15 15 13 14 13 10 12 17 20 23 26 27 26 24 24 25 25 24 21 18 17 17 17 16 14 11 10 9 8 8 8 8 8 8 8 8 8 7 7 8 8 9 8 9 9 9 12 13 12 13 13 14 15 16 17 16 19 17
3 3 2 5 3 2 5 4 4 3 2 6 8 6 8 11 10 10 7 6 7 10 15 15 16 16 16 14 11 11 12 12 13 12 11 14 19 23 22 21 21 20 23 26 21 17 17 19 21 23 25 25 24 25 25 24 22 19 17 16 16 15 14 13 11 10 10 8 8 7 7 6 6 7 7 7 7 7 7 8 9 9 10 9 9 11 13 14 13 13 14 14 16 18 16 17 12
3 6 6 5 4 4 7 6 5 5 4 5 3 5 6 6 7 8 5 3 7 8 9 9 10 11 10 9 9 10 11 12 15 14 11 11 12 15 17 19 20 21 27 28 26 25 23 23 24 23 25 24 24 25 23 22 21 19 16 15 15 14 12 13 13 13 11 10 9 8 7 6 5 5 5 6 6 6 7 8 8 9 10 9 9 10 12 13 13 13 13 12 15 17 16 18 12
4 6 9 9 8 9 10 7 5 5 5 4 1 4 6 6 6 7 5 3 4 5 9 10 8 7 8 10 10 10 11 12 13 13 11 11 9 11 15 20 22 23 30 28 25 29 29 28 28 26 26 25 24 25 22 21 20 19 17 16 16 15 13 14 15 15 14 12 10 9 8 6 5 4 5 5 6 7 7 7 8 9 9 9 9 9 10 11 12 12 11 10 13 14 15 18 14
5 6 10 12 11 10 10 7 1 1 5 4 3 3 5 7 6 7 6 5 5 2 6 9 8 8 9 10 11 11 12 13 13 12 12 13 13 16 21 30 30 28 31 28 24 27 28 28 29 28 27 26 25 25 23 21 21 20 18 18 18 17 16 15 15 15 14 12 10 9 8 7 6 6 6 6 7 7 7 6 7 7 8 8 9 10 9 10 11 11 10 9 11 14 15 17 14
5 6 8 9 9 9 9 6 5 4 4 3 3 4 3 5 5 6 6 6 8 6 4 6 7 10 11 11 11 11 12 13 14 13 13 13 16 20 25 32 33 31 29 26 25 28 29 29 30 29 27 26 26 26 24 23 22 21 20 19 19 18 17 15 15 15 13 12 11 11 10 9 9 8 8 9 9 8 7 6 6 7 8 9 8 9 9 8 9 10 11 9 11 15 15 16 15
9 8 8 7 8 9 8 6 5 3 2 5 5 2 2 5 5 6 5 6 7 5 3 6 8 12 14 12 11 12 13 14 14 14 15 15 18 23 27 31 32 30 28 27 29 32 33 32 31 30 27 25 25 25 25 24 21 21 21 20 19 18 17 16 15 15 13 13 13 11 10 11 10 10 9 9 8 8 7 5 6 7 8 8 8 8 8 8 8 10 12 11 12 16 15 15 16
8 6 5 3 3 3 3 5 4 1 1 6 7 1 2 5 5 5 5 6 5 4 1 4 8 14 14 10 12 14 13 13 13 15 16 18 23 27 27 26 26 27 28 28 29 28 28 30 31 29 26 24 24 25 26 23 20 21 22 22 21 20 19 17 17 15 14 14 12 11 11 11 11 10 10 9 8 7 6 4 6 8 8 8 7 8 8 9 8 9 11 12 13 15 14 13 14
3 3 3 3 1 2 1 2 3 2 2 7 8 5 4 3 5 2 2 3 3 3 2 5 9 12 11 10 12 14 12 11 12 13 14 16 20 23 21 19 20 24 25 24 24 21 20 24 28 28 24 23 24 25 25 22 20 22 23 23 23 22 20 20 19 17 14 14 13 12 13 12 11 11 10 10 9 8 6 4 5 8 9 8 8 8 8 9 9 9 10 12 13 14 13 13 12
3 3 2 3 3 4 3 4 4 2 5 7 7 5 6 3 4 3 5 6 5 7 7 11 14 12 10 10 12 11 11 12 12 11 11 10 11 13 15 17 19 20 20 20 21 19 17 20 25 25 22 22 23 24 23 22 22 23 24 24 24 23 21 21 20 18 16 16 15 15 14 13 12 11 10 10 10 8 6 5 6 9 10 8 7 7 8 9 9 9 11 13 13 13 13 13 14
5 3 3 3 2 3 2 3 0 2 6 6 4 3 4 3 4 5 9 7 1 5 5 8 13 13 11 11 11 11 12 13 13 10 9 8 9 11 14 15 14 13 13 15 16 16 16 18 22 23 22 22 22 22 23 23 24 26 26 26 26 23 21 21 21 19 18 17 17 16 14 12 12 11 11 11 11 9 7 7 8 10 10 7 7 7 7 8 9 9 11 12 12 12 13 13 13
6 5 4 4 2 1 1 4 1 3 5 4 3 1 1 3 3 5 8 6 3 2 2 2 6 8 9 8 7 7 8 9 7 4 5 6 5 8 10 8 5 5 8 9 11 13 14 15 19 21 22 22 21 21 22 24 26 27 27 27 26 23 21 20 20 20 18 17 16 14 13 11 11 10 11 12 11 9 9 9 10 11 10 8 7 6 7 7 8 9 10 10 11 11 11 11 10
5 5 6 5 4 4 3 4 3 4 3 3 4 0 0 1 3 7 5 4 5 5 4 4 4 5 8 8 8 7 5 6 3 1 2 4 5 8 10 9 6 4 6 6 8 11 12 14 18 21 22 23 22 22 23 24 26 26 26 26 25 23 21 20 20 19 17 17 15 14 13 11 10 10 11 11 10 10 10 10 10 10 10 9 7 6 6 6 7 8 9 9 10 11 10 10 9
3 2 5 3 4 6 2 3 5 3 1 2 3 1 1 2 3 7 4 4 6 7 7 8 7 4 5 8 8 7 5 6 5 1 4 6 8 11 13 12 10 8 7 8 9 12 13 15 19 22 24 25 24 22 22 23 25 26 25 25 24 22 21 20 20 19 17 16 16 15 13 11 10 10 10 10 10 11 10 10 9 8 10 11 8 5 6 6 7 8 9 10 11 10 10 9 9
1 2 3 3 4 7 3 2 1 1 1 1 1 1 3 2 3 6 5 4 5 5 7 10 10 9 6 4 6 8 7 6 4 3 5 6 8 11 14 14 12 11 10 10 10 12 14 16 17 18 19 21 23 22 17 15 20 24 24 24 23 22 21 21 21 19 18 17 16 15 13 11 11 10 10 10 10 10 10 10 8 7 8 11 9 6 6 6 7 8 9 10 11 10 9 10 10
4 2 5 3 3 5 3 2 2 3 2 3 1 2 2 1 1 4 3 2 2 2 3 8 10 8 5 3 4 6 6 5 4 4 6 7 8 11 13 13 12 13 12 11 10 9 11 13 14 16 14 10 13 20 17 11 13 21 23 23 24 23 22 21 20 19 18 18 17 15 13 13 12 11 10 10 10 10 10 9 8 7 8 12 12 8 6 7 7 7 8 9 9 10 10 10 10
4 4 3 3 2 1 1 2 1 1 2 2 2 1 2 2 2 3 3 3 3 2 1 4 9 9 5 2 4 5 5 5 4 5 5 5 7 11 13 13 13 14 13 11 10 7 8 8 12 15 11 4 10 18 19 13 14 19 22 23 24 23 21 20 20 20 19 18 17 15 15 14 13 12 11 10 10 10 9 8 8 8 9 13 14 10 7 8 8 8 8 8 8 8 10 10 11
2 3 1 2 3 4 2 2 3 3 3 1 0 1 2 3 3 3 4 3 2 2 3 1 4 7 6 4 4 5 5 5 5 6 5 5 8 11 14 14 14 14 13 12 11 9 9 9 10 14 14 11 13 18 19 18 17 20 21 23 24 22 20 19 19 19 19 17 16 15 15 15 14 12 11 10 9 9 9 9 9 10 10 12 15 13 9 8 9 9 8 7 9 10 11 11 13
2 2 1 2 1 3 1 0 2 4 4 3 3 1 4 3 2 3 2 1 2 3 2 5 6 5 4 5 6 6 6 6 6 7 7 6 10 13 14 16 16 16 15 14 13 13 13 13 14 17 18 17 16 17 18 17 17 20 22 23 23 21 20 20 19 18 17 15 14 14 16 15 13 12 11 10 9 9 9 9 10 9 9 11 13 13 11 9 9 9 9 7 9 13 14 14 15
5 3 2 1 2 3 3 1 2 2 4 4 5 3 4 3 2 3 1 3 2 4 3 4 7 7 5 5 8 7 7 7 7 7 8 7 9 12 14 15 16 16 16 16 15 15 16 16 18 19 18 18 17 17 17 16 17 21 23 25 24 21 19 19 17 17 16 14 13 14 15 14 12 11 10 10 11 11 10 9 9 8 8 9 10 10 11 10 9 10 10 8 10 13 15 15 16
Wind_Direction
336 308 287 278 311 339 329 69 99 318 80 250 256 229 255 235 240 275 275 283 323 295 310 330 97 101 94 112 136 121 55 97 182 146 195 205 141 152 164 159 151 147 147 151 153 152 151 152 154 154 153 149 147 147 145 140 137 135 129 128 129 129 129 127 128 127 124 121 121 121 121 123 122 121 120 118 117 116 113 109 109 110 111 113 114 111 110 112 111 111 113 112 110 109 108 107 107
356 319 284 296 321 12 228 84 102 315 46 278 257 191 252 281 226 234 245 232 231 242 96 54 65 68 80 99 120 106 39 16 64 123 106 127 131 145 160 157 151 146 148 152 153 152 153 155 156 155 153 150 149 149 146 142 140 136 131 130 131 132 131 130 130 128 123 120 121 122 123 124 123 122 121 119 116 114 112 111 111 111 110 110 113 111 110 112 112 113 112 112 110 109 109 108 109
76 142 185 332 348 51 83 52 89 168 169 253 263 228 251 275 232 240 243 208 228 236 168 91 60 55 82 82 44 53 57 16 74 93 110 133 128 139 155 154 150 147 148 150 152 153 154 156 157 156 154 151 151 152 148 143 142 138 133 132 134 135 133 132 132 130 125 123 124 125 126 126 125 125 122 118 117 116 115 114 114 114 112 111 113 113 111 112 113 114 113 112 109 108 110 110 109
119 150 339 33 50 31 64 55 141 147 208 234 269 254 227 239 247 262 262 239 236 230 209 108 57 340 98 104 102 65 97 59 88 116 125 141 139 144 150 149 148 147 147 151 152 152 154 157 157 156 155 153 154 154 149 144 143 138 135 135 136 136 136 135 135 134 128 126 127 128 128 128 128 127 127 125 123 120 116 116 115 116 116 114 114 114 113 114 116 115 114 113 112 112 112 111 109
142 174 347 54 88 34 97 103 132 158 221 198 243 259 218 225 251 287 299 300 272 227 206 125 104 269 95 105 158 121 111 115 144 139 101 133 144 146 148 147 147 146 148 151 152 152 154 156 157 157 156 156 156 155 149 144 142 139 138 137 137 138 137 137 137 135 131 129 129 130 129 130 131 130 131 128 125 122 121 122 122 124 120 116 115 114 113 115 117 116 117 117 117 116 113 112 110
155 140 16 48 101 156 120 160 226 233 232 179 243 271 246 235 259 304 315 314 319 8 275 133 150 139 102 66 54 131 152 137 141 138 123 139 148 148 148 146 145 146 149 152 154 153 153 157 159 159 158 158 157 154 148 144 142 140 139 138 138 139 138 137 135 133 131 131 131 131 130 131 131 131 130 127 127 126 127 127 130 132 126 118 114 114 113 115 118 121 124 124 121 118 114 111 106
142 113 26 56 33 35 113 206 234 248 251 200 241 276 277 278 282 303 314 317 341 15 357 322 154 116 96 95 57 75 148 136 135 143 145 146 149 148 146 145 144 146 150 152 154 153 153 158 159 159 159 158 156 152 148 145 144 142 139 139 140 140 140 138 135 133 133 133 133 133 131 131 132 130 130 130 130 130 129 129 132 133 125 117 112 113 111 113 122 127 130 128 124 118 113 107 100
136 115 37 94 46 7 111 247 250 228 254 239 251 269 278 285 286 293 291 267 301 314 55 256 240 87 30 79 92 4 78 119 138 143 145 146 148 147 146 144 143 147 151 152 152 152 154 159 159 160 160 157 155 151 149 147 145 142 140 141 142 142 143 140 138 138 136 136 136 135 135 135 135 134 134 135 133 132 132 131 131 129 123 119 114 114 109 111 124 130 130 128 124 118 110 103 97
96 55 88 94 122 345 320 276 270 241 258 266 271 268 271 278 286 290 280 266 212 204 178 220 302 82 116 75 95 9 69 120 135 138 144 146 149 148 147 147 146 148 151 152 151 153 156 159 160 161 161 157 154 151 150 148 146 143 142 143 144 144 145 144 144 144 140 137 138 138 138 138 139 139 140 140 137 136 137 136 133 128 126 124 118 115 111 113 124 131 131 130 125 117 109 101 95
45 19 129 86 112 319 294 270 266 266 261 257 266 267 269 274 277 270 269 278 237 175 166 119 60 116 130 96 94 62 115 131 132 135 145 148 151 149 149 150 149 148 151 152 151 153 156 160 162 162 160 157 155 153 152 150 147 145 146 147 145 144 145 146 146 146 142 138 138 138 139 140 141 141 142 141 139 138 137 137 136 132 127 126 121 117 114 115 126 133 134 133 128 120 111 102 95
38 342 105 84 88 214 257 264 273 271 273 281 277 268 264 265 268 262 253 263 241 141 139 94 103 128 112 105 85 114 136 139 136 140 149 151 152 151 149 150 149 150 151 151 151 154 156 160 163 162 160 159 157 154 154 152 149 149 150 148 145 145 145 145 144 144 141 138 140 140 140 140 139 137 137 137 136 135 133 134 137 136 130 125 123 121 119 120 130 137 138 137 132 125 113 104 95
93 319 75 98 152 202 220 245 274 281 289 292 275 272 268 267 265 250 237 232 159 135 191 152 147 134 106 117 106 129 142 145 145 147 153 154 153 152 151 150 151 151 150 151 152 154 155 159 162 162 162 160 158 157 157 155 153 153 152 149 146 146 144 144 143 141 139 140 143 142 140 139 138 134 133 134 131 130 128 130 135 137 135 130 128 124 121 121 128 137 142 142 137 128 116 107 97
127 160 90 127 190 192 212 234 274 303 301 272 256 284 294 277 258 220 200 166 141 161 234 177 153 132 107 124 128 145 154 158 152 150 155 155 154 152 153 151 150 150 150 151 152 154 156 159 161 162 163 160 160 160 159 157 155 155 154 150 147 146 145 144 143 140 140 141 143 144 142 139 137 136 134 133 129 127 125 126 131 133 135 134 134 133 127 123 129 136 141 144 142 132 120 112 101
157 159 115 178 243 185 214 239 276 300 279 266 267 310 313 290 262 196 136 110 124 185 162 128 140 114 109 134 140 164 169 165 155 152 155 153 154 152 152 150 147 149 150 151 151 155 157 161 162 162 164 162 162 160 159 159 157 158 155 150 148 148 146 145 142 141 141 141 143 144 141 138 138 139 136 131 127 127 126 125 128 132 137 139 139 140 136 132 134 137 140 144 145 140 130 121 108
175 152 101 117 311 279 238 215 239 218 265 286 298 323 334 323 337 60 111 117 82 167 108 113 141 100 149 172 165 175 170 164 156 152 151 150 153 150 148 145 144 147 148 150 152 156 158 162 163 163 165 162 163 160 161 161 158 159 154 150 150 148 145 143 142 142 143 142 143 140 136 136 137 137 133 129 126 127 127 127 128 130 136 140 143 144 142 143 143 142 144 145 146 146 142 130 112
162 94 74 79 255 251 233 213 201 208 267 298 304 335 348 322 342 57 285 146 129 104 72 143 256 114 175 188 159 159 161 161 156 151 146 146 148 144 142 140 141 144 146 151 153 158 160 163 165 165 165 163 164 162 161 160 158 157 152 151 151 148 144 141 141 142 144 144 143 138 136 135 134 134 131 128 125 124 126 127 128 127 133 138 139 144 147 151 151 145 146 147 145 146 147 135 114
91 83 75 236 230 225 211 211 177 202 271 304 316 350 356 322 334 14 4 75 110 89 37 71 310 123 161 145 129 145 153 156 151 144 139 140 143 139 138 138 140 143 147 152 156 160 161 163 165 165 165 165 165 163 160 158 156 155 153 154 151 147 142 138 140 142 146 147 146 143 141 139 137 136 131 128 123 121 121 122 122 125 132 133 129 136 144 145 139 131 133 137 137 139 145 136 116
89 109 145 212 230 229 194 195 199 235 294 311 314 345 4 327 323 333 28 44 63 74 43 51 56 68 110 117 127 143 150 152 149 140 134 138 144 142 143 144 144 146 150 153 158 161 160 162 164 163 163 165 164 162 159 156 157 157 156 156 151 144 139 138 140 143 149 150 150 149 146 143 140 137 132 129 127 124 120 118 120 123 127 124 120 121 126 124 118 116 118 124 132 135 139 134 119
154 134 154 225 222 229 201 213 250 295 294 302 302 323 11 316 290 329 56 25 36 80 53 72 91 92 108 119 130 142 147 151 150 135 127 141 151 152 152 152 149 149 152 155 158 161 160 160 162 162 162 164 164 161 159 160 161 160 160 157 150 145 144 146 148 151 153 150 150 152 149 146 139 133 130 131 131 128 124 121 123 125 124 120 117 117 116 116 113 116 119 123 134 137 138 134 125
185 146 197 238 220 257 263 258 271 276 279 293 293 308 351 299 278 14 128 97 59 118 123 118 125 134 133 131 135 141 148 155 144 124 134 158 161 160 157 155 152 149 153 157 159 160 160 160 162 163 164 165 163 161 162 164 164 163 162 159 153 151 152 153 157 157 152 148 150 153 150 145 139 134 134 139 139 137 131 129 130 130 128 126 124 124 120 114 110 112 115 123 135 140 142 137 131
187 161 215 242 194 265 270 257 261 265 269 275 287 310 318 291 294 126 147 111 333 204 182 161 156 155 146 145 143 137 144 137 106 112 141 148 152 162 155 153 152 151 154 158 160 159 158 160 162 164 166 167 165 164 166 167 166 164 163 162 158 157 157 158 161 158 150 150 153 153 152 150 150 147 149 154 153 148 140 136 134 131 132 131 128 124 116 109 107 110 114 125 137 143 144 139 138
215 211 231 248 196 260 275 273 264 265 276 283 290 297 289 295 53 173 163 149 228 228 204 181 163 158 151 146 135 115 111 93 87 115 114 71 52 329 157 151 153 154 155 159 160 158 159 161 162 164 167 169 168 167 168 169 168 167 165 165 163 161 163 163 163 159 154 155 156 155 155 157 161 160 161 162 160 156 147 139 132 127 128 126 122 118 112 106 108 114 120 130 140 145 142 138 142
233 259 246 248 219 241 277 288 275 275 288 285 279 286 300 320 300 210 193 198 226 192 173 177 161 147 140 137 129 116 111 113 130 145 139 128 136 197 212 164 158 158 155 159 160 159 161 162 165 167 169 172 171 170 170 170 171 170 168 168 168 166 169 169 165 163 160 159 159 159 159 162 167 170 169 166 165 162 155 146 135 130 129 122 114 107 104 103 111 122 132 143 147 148 136 118 115
204 262 267 259 241 237 261 267 273 279 269 269 279 318 307 281 277 202 218 239 189 116 130 142 138 129 133 131 122 118 117 136 158 150 155 159 159 175 202 181 166 164 156 158 162 163 163 164 168 170 173 177 175 174 173 172 172 171 169 170 171 172 175 175 170 167 166 163 160 162 163 167 172 175 172 168 170 169 164 157 147 144 136 126 115 104 102 101 110 136 154 164 161 151 123 89 80
214 243 265 270 263 249 261 269 276 279 266 271 291 300 276 261 246 155 235 260 142 127 127 130 131 132 138 129 120 123 134 157 166 158 164 168 164 169 186 186 172 169 163 161 162 163 164 165 171 174 177 178 176 175 175 173 172 173 172 172 174 177 179 179 176 174 172 169 166 169 172 176 180 181 176 173 176 174 170 166 159 153 145 134 122 112 111 105 111 147 168 176 163 140 104 86 78
217 224 253 264 273 267 270 276 267 269 264 267 283 277 268 259 164 204 253 232 132 128 129 137 139 143 143 130 132 142 154 164 166 168 165 166 171 171 176 182 177 174 170 164 162 162 163 167 173 177 178 177 176 176 176 174 174 176 175 176 180 180 181 182 182 180 179 177 174 177 180 184 190 188 183 180 180 179 175 174 173 167 161 158 130 119 122 115 124 150 160 156 138 124 110 107 107
224 225 261 255 264 271 263 267 264 271 276 241 244 261 269 289 96 256 218 126 136 126 132 145 145 149 147 142 149 156 160 164 169 169 155 158 180 179 174 178 178 176 171 164 163 163 164 169 174 178 178 177 178 177 178 177 178 180 179 181 186 184 183 185 183 183 184 184 184 186 186 192 199 196 191 187 184 185 183 182 186 187 192 195 150 127 128 118 125 144 145 124 113 116 118 119 127
264 259 297 283 278 281 252 261 267 267 278 229 210 249 274 325 98 237 182 144 144 136 141 151 151 152 151 153 158 166 165 165 173 171 158 167 183 183 177 178 177 175 172 166 165 166 167 170 173 177 178 178 180 180 181 182 183 184 184 186 189 188 189 190 188 188 189 190 194 196 197 201 202 199 197 194 190 191 194 195 198 199 206 197 151 133 134 125 122 136 132 112 108 114 118 124 136
270 254 309 299 317 305 251 242 241 200 247 223 172 265 290 294 233 243 175 148 148 144 148 155 159 154 156 160 157 166 170 168 179 181 176 177 181 182 178 179 178 175 174 170 168 170 170 171 172 176 179 181 184 185 185 187 188 189 191 191 190 191 193 197 196 194 194 196 201 204 207 207 203 202 201 198 193 195 200 198 191 187 189 177 146 138 141 132 124 127 125 118 119 121 124 132 145
277 267 279 305 334 307 264 241 234 200 236 195 141 256 280 263 251 257 183 149 144 146 157 161 162 154 161 166 150 161 174 177 187 189 184 180 183 183 176 177 179 175 173 172 173 174 173 173 172 174 179 182 184 186 188 191 193 194 197 195 193 194 196 202 202 200 200 202 208 210 211 208 206 206 202 197 190 190 195 187 179 174 177 174 155 148 144 136 132 130 126 126 131 136 136 143 151
315 300 283 316 297 280 293 302 271 240 261 147 144 226 255 262 263 253 183 156 152 157 168 166 166 161 164 165 149 164 181 191 195 190 186 183 185 183 174 176 179 178 174 172 175 175 174 175 174 173 177 180 182 187 191 196 199 199 200 197 196 198 200 204 205 204 206 207 213 213 210 208 208 207 202 198 191 187 187 181 178 177 177 178 169 158 146 143 143 140 138 136 142 150 149 150 151
3 287 284 318 213 269 307 297 222 230 279 118 147 227 261 263 265 253 178 163 162 162 170 171 173 165 161 164 155 167 181 190 197 195 191 185 185 183 175 175 178 180 177 172 173 173 173 176 177 174 174 178 182 188 195 199 203 202 201 200 199 201 205 209 209 208 208 209 213 212 208 208 208 207 204 203 198 191 190 184 180 180 180 179 175 164 151 149 147 147 152 151 151 157 157 155 154
354 221 254 283 267 298 321 304 250 218 251 335 176 219 265 267 266 263 173 170 169 165 173 174 175 167 164 170 160 171 177 181 194 196 193 185 182 181 176 177 180 182 182 177 173 172 174 177 178 173 172 178 182 189 196 201 204 204 202 200 200 204 210 214 212 208 209 210 213 209 208 211 211 210 207 207 202 196 197 192 185 183 181 178 175 168 156 151 153 153 157 161 160 159 161 160 155
317 360 260 263 258 278 303 302 310 321 172 274 274 223 253 267 272 281 180 175 174 170 176 176 176 171 172 176 166 173 177 180 191 187 186 181 176 176 174 178 181 183 186 183 176 173 174 176 175 173 172 177 182 187 194 200 204 204 202 201 202 204 209 214 211 210 213 217 217 212 212 213 214 214 213 212 205 197 201 199 193 188 181 178 174 170 161 156 164 165 160 164 169 164 164 163 155
165 356 292 284 283 262 269 270 302 349 12 268 312 293 269 271 270 276 200 175 179 180 181 177 175 171 175 179 172 175 178 180 179 176 181 175 168 169 172 178 182 185 187 182 174 171 170 171 172 173 174 175 179 184 190 196 202 203 202 202 203 204 206 209 209 213 217 219 221 218 217 217 216 216 216 216 206 198 204 202 197 192 186 182 175 173 166 161 170 176 170 168 170 165 164 162 155
151 212 188 248 294 277 265 256 267 326 341 291 288 279 273 277 270 269 213 170 187 190 182 176 171 171 176 179 181 177 174 173 157 164 175 164 159 164 169 176 181 185 183 175 170 167 166 168 171 174 176 176 177 182 188 193 196 199 202 199 199 202 205 206 208 214 216 218 227 223 220 221 217 215 214 213 207 205 210 209 202 195 195 189 183 186 175 165 172 177 174 172 166 156 153 155 154
333 300 267 256 273 275 276 275 272 314 336 282 269 264 268 271 268 267 220 158 186 192 177 175 171 174 180 185 191 178 166 155 132 145 157 143 146 155 163 174 178 181 176 168 166 167 169 170 172 175 177 179 181 184 188 192 194 195 198 196 195 198 202 203 205 212 217 221 226 222 223 226 220 215 216 215 215 215 212 212 210 202 194 188 192 196 180 167 171 173 170 169 163 151 147 146 148
286 275 289 287 263 270 280 278 276 286 255 261 276 284 276 268 265 270 223 152 184 192 178 179 180 181 184 188 189 168 149 137 124 132 132 120 129 145 158 168 172 169 163 162 165 174 175 172 174 177 179 182 186 189 190 193 196 195 195 194 192 195 199 201 203 211 219 220 217 216 221 223 218 216 217 218 222 221 215 210 210 203 191 183 182 183 176 169 168 169 168 164 158 153 149 146 146
233 235 280 279 273 293 294 283 285 288 154 269 291 295 277 273 271 273 243 180 188 192 184 183 181 179 183 189 182 156 143 135 128 124 113 112 131 155 164 169 175 171 169 175 181 184 178 172 179 183 182 184 187 193 195 194 194 193 192 193 189 191 196 199 204 212 213 211 209 210 211 210 211 213 213 218 224 222 218 210 203 197 189 181 170 168 171 170 167 167 170 166 157 152 152 154 153
215 198 224 262 284 330 287 290 314 303 251 262 289 303 278 284 294 285 257 183 168 191 194 189 180 178 184 185 169 152 147 136 128 119 117 132 155 167 167 172 179 180 182 185 184 183 179 176 184 189 188 188 190 195 197 192 188 188 191 193 190 191 195 198 202 206 203 201 201 198 193 194 202 208 209 215 220 212 205 200 190 184 180 174 167 168 170 172 172 171 172 174 164 153 155 164 167
231 207 211 245 263 238 239 272 315 314 297 245 279 332 294 300 309 293 306 116 147 179 189 190 186 175 167 151 136 143 141 133 129 128 135 143 156 159 156 174 186 188 192 191 183 181 181 182 187 191 193 192 193 196 195 187 183 186 190 190 188 189 192 194 195 197 196 194 190 184 179 184 193 199 203 204 201 190 180 176 173 171 172 172 168 168 172 174 178 178 176 181 177 169 167 174 183
268 225 208 214 235 242 246 274 323 342 318 260 71 17 296 305 303 289 325 74 135 171 172 176 175 147 130 125 130 136 131 131 132 132 134 121 110 117 146 188 201 198 198 195 188 187 185 185 186 190 194 194 195 197 193 186 184 189 191 185 182 184 182 186 191 192 191 187 179 174 172 175 179 181 187 184 174 169 166 161 164 167 173 177 172 171 177 178 181 183 181 188 193 190 184 181 188
265 234 202 207 221 238 252 263 248 239 269 261 84 101 267 306 318 310 339 57 70 79 164 164 153 135 132 136 139 138 133 133 132 133 134 131 139 147 169 195 202 201 200 195 192 193 188 186 185 188 193 193 195 196 192 186 186 191 193 189 187 188 184 187 193 192 187 180 171 168 164 157 153 152 153 151 149 153 157 160 167 171 173 176 176 179 186 185 183 184 184 192 200 200 196 191 192
247 226 182 194 216 225 237 231 198 222 267 305 39 114 216 290 290 307 345 54 51 41 105 127 133 133 135 139 136 133 132 133 132 136 143 153 171 176 184 196 200 201 199 193 194 195 192 189 186 187 191 192 194 195 190 186 188 192 193 191 190 194 195 192 191 189 185 177 168 164 157 148 143 138 134 133 133 137 143 153 164 169 170 173 178 184 188 188 188 191 187 189 198 199 201 204 205
248 224 172 185 212 216 214 198 203 252 337 308 318 88 187 270 277 315 1 63 41 16 100 125 136 137 138 137 128 125 129 134 136 143 154 170 185 189 192 197 200 199 195 194 197 196 195 192 186 186 189 190 192 192 188 186 190 194 192 191 190 191 195 190 184 183 182 175 169 167 162 156 149 141 136 134 133 133 135 145 161 168 168 172 178 183 189 192 192 193 187 186 193 197 202 212 215
248 212 181 197 201 205 193 170 179 32 31 265 271 163 186 270 291 330 14 51 19 336 18 128 140 142 141 133 127 131 134 138 144 152 165 180 188 193 196 196 196 197 196 197 199 198 197 191 184 186 189 190 191 190 188 189 193 196 194 193 189 183 182 179 176 177 178 177 177 177 173 167 160 152 147 144 143 141 140 148 164 166 164 169 176 178 187 193 191 190 188 188 190 190 194 204 215
219 126 193 240 344 25 60 120 108 79 280 257 250 200 171 262 286 310 9 347 279 240 168 141 147 144 141 134 134 139 141 144 149 158 171 182 187 192 193 190 195 199 198 200 200 199 196 188 183 185 189 191 190 189 190 193 196 199 199 196 190 182 176 173 174 176 177 178 178 175 174 173 171 165 158 152 148 147 152 165 177 172 166 172 181 180 183 186 186 188 188 187 186 186 188 192 203
172 95 157 213 301 3 25 1 52 115 248 260 252 194 149 205 269 301 319 300 239 205 180 161 160 152 143 142 140 140 142 147 151 161 173 177 178 183 187 192 199 202 199 200 201 197 193 187 183 183 188 190 189 190 193 196 199 201 203 200 194 187 180 176 177 178 176 173 169 165 168 172 172 170 165 157 153 156 165 180 192 185 176 179 188 189 186 183 184 187 186 185 187 190 192 191 195
154 127 101 124 281 355 7 307 22 198 243 258 260 164 138 211 243 314 328 332 245 203 208 178 168 156 145 145 144 144 151 157 160 168 174 172 172 176 185 193 200 205 204 200 199 196 191 187 181 180 186 188 189 191 193 196 199 201 201 199 194 191 186 183 183 182 177 172 166 162 161 163 165 169 171 166 160 161 167 172 180 180 176 180 188 192 191 186 187 190 189 189 192 195 194 196 200
156 163 146 140 155 97 292 272 271 264 246 258 277 188 214 270 272 329 340 6 53 151 201 192 156 137 125 120 120 136 149 148 151 168 166 166 172 161 160 163 173 204 206 195 196 196 190 184 179 180 182 186 188 189 190 193 195 197 197 194 192 190 187 186 188 186 182 178 173 168 164 165 164 166 172 172 166 163 164 164 168 173 175 176 181 191 193 188 189 192 192 193 194 196 195 197 202
170 167 142 144 153 149 216 234 219 256 248 296 319 78 202 271 309 330 349 51 55 85 97 70 81 106 110 93 71 62 69 94 105 340 59 71 58 84 99 102 111 157 179 171 178 184 184 181 181 182 182 184 186 185 185 188 188 188 187 187 188 188 187 188 189 190 190 187 183 179 177 178 174 167 167 168 167 168 167 165 168 175 179 179 178 190 198 193 192 193 190 190 190 190 189 190 192
213 145 111 145 182 158 184 202 185 209 199 348 346 53 265 243 293 329 358 63 59 74 75 61 51 49 104 105 97 101 122 150 162 112 51 56 58 72 86 99 113 130 142 145 153 167 181 186 186 188 186 182 180 178 177 180 181 179 179 181 182 184 186 187 189 193 195 194 190 187 187 188 186 178 170 167 166 171 173 173 173 178 186 187 182 190 203 201 196 193 187 182 181 179 177 175 173
199 121 153 206 170 137 138 219 213 89 135 306 350 151 301 324 323 328 357 33 50 75 79 71 54 30 33 70 113 140 167 173 158 112 90 80 75 82 92 104 118 122 122 130 144 164 182 189 189 189 189 183 175 169 160 160 172 173 174 177 179 183 188 190 192 193 192 194 194 195 196 194 193 190 181 173 170 174 178 182 182 183 192 191 184 183 197 200 197 195 188 182 177 172 169 165 161
125 185 206 188 95 94 114 153 12 36 187 262 352 181 261 32 315 306 336 353 343 32 81 96 88 66 37 27 84 121 145 139 115 99 98 91 91 100 102 105 118 122 119 125 135 154 173 185 190 186 188 189 160 150 142 135 161 169 171 176 180 186 190 192 194 191 189 193 196 200 202 197 193 191 188 185 182 181 182 188 194 193 198 195 185 179 189 194 191 186 182 182 177 172 170 165 163
137 179 175 121 114 47 88 150 137 117 187 267 11 10 250 182 208 265 243 232 257 304 315 135 131 130 138 122 91 99 106 100 90 85 85 88 98 108 109 107 113 119 122 129 135 141 145 167 189 177 168 141 105 126 141 151 166 170 171 176 180 184 189 192 193 191 192 196 198 201 201 195 192 191 193 194 192 190 188 194 201 196 198 198 188 181 185 189 185 175 172 175 175 177 174 164 161
75 116 48 42 137 160 179 165 158 154 159 200 96 5 272 221 233 261 234 238 289 287 283 295 121 125 131 130 106 90 89 84 74 77 80 87 96 104 113 113 111 113 120 131 140 146 134 137 158 147 136 131 123 132 149 157 162 167 171 177 179 182 185 188 193 195 198 201 201 202 199 194 191 191 197 200 197 195 189 188 190 183 185 192 189 185 187 191 189 183 179 173 170 171 167 157 153
75 123 66 337 58 127 161 113 113 134 142 165 157 214 262 254 301 285 223 157 334 316 342 13 18 43 87 116 105 83 79 78 70 76 83 91 99 105 112 113 113 113 116 126 134 140 135 128 130 129 131 139 139 141 150 151 156 166 173 176 175 177 181 185 193 200 203 202 201 200 196 192 190 191 199 201 190 182 173 170 173 175 177 183 186 187 188 196 200 196 193 185 172 165 157 150 148
127 141 122 164 173 126 130 266 298 104 128 162 156 188 262 296 341 303 192 133 25 3 42 41 15 12 24 71 92 84 75 78 80 85 92 96 101 106 109 109 110 109 109 118 127 134 137 132 130 133 138 142 140 142 149 153 160 168 173 174 171 174 180 183 190 199 201 198 194 192 191 189 190 194 196 187 176 170 166 168 175 182 186 187 189 192 193 200 208 203 196 190 179 169 159 152 149